[[{"header":{"parameterUnit":"m.s-1","parameterCategory":1,"la1":30.2991,"la2":30.254,"lo1":-89.0895,"lo2":-89.0444,"dy":0.0017,"dx":0.0017,"nx":28,"ny":28,"refTime":"2025-06-18T09:00:00:Z","depth":0,"parameterNumber":2,"parameterNumberName":"U-component_of_WINDS"},"data":[0,0,0,0,0,0,0,0,0,0,0,0,0,0,0,0,0,0,0,0,0,0,0,0,0,0,0,0,0,0,0,0,0,0,0,0,0,0,0,0,0,0,0,0,0,0,0,0,0,0,0,0,0,0,0,0,0,0,4.3625,4.3626,0,4.3792,4.3794,4.3796,4.3746,4.3743,4.3739,4.3736,4.3909,4.3917,4.3924,0,0,0,0,0,0,0,0,0,0,0,0,0,4.3261,4.3268,4.3624,4.3626,4.3629,4.3792,4.3794,4.3796,4.3747,4.3743,4.3738,4.3734,4.3907,4.3916,4.3925,0,0,0,0,0,0,0,0,0,0,0,0,0,4.3423,4.327,4.3624,4.3624,4.3625,4.3791,4.3794,4.3797,4.3748,4.3743,4.3737,4.3732,4.3903,4.3915,4.3926,4.4104,0,0,4.3962,4.3968,0,0,0,0,0,0,0,0,4.3414,4.3436,4.3622,4.3624,4.3626,4.3743,4.3729,4.39,4.3749,4.3701,4.3736,4.373,4.3858,4.3873,4.3916,4.4112,4.4119,4.3964,4.3971,4.3976,4.3979,0,0,0,0,0,0,0,4.3403,4.3429,4.3691,4.3624,4.3627,4.3615,4.3632,4.3761,4.3807,4.3705,4.3702,4.3722,4.3858,4.3905,4.392,4.4122,4.3963,4.3974,4.3981,4.3986,4.4468,4.4474,0,0,0,0,0,0,4.339,4.342,4.3685,4.3696,4.3505,4.3626,4.3645,4.3711,4.3805,4.3815,4.3727,4.3719,4.3887,4.3906,4.3926,4.4137,4.3976,4.3987,4.3993,4.4463,4.447,4.4476,0,0,0,0,0,0,4.3382,4.3414,4.3679,4.3557,4.359,4.3637,4.3712,4.3717,4.3763,4.3822,4.383,4.3766,4.3884,4.3909,4.4059,4.4143,4.3992,4.4003,4.4456,4.4465,4.4473,4.4563,0,0,0,0,0,0,4.3372,4.3412,4.348,4.3559,4.3596,4.381,4.3717,4.3724,4.3784,4.3776,4.3861,4.387,4.3882,4.4042,4.4071,4.4156,4.4012,4.4449,4.446,4.447,4.4553,4.4574,4.4592,0,0,0,0,0,4.3359,4.3499,4.3483,4.3516,4.3682,4.3814,4.3836,4.3847,4.3791,4.3859,4.3896,4.3867,4.4129,4.4058,4.409,4.418,4.4443,4.4457,4.4469,4.4544,4.457,4.4592,0,0,0,0,0,0,4.3429,4.351,4.3493,4.3663,4.3732,4.3806,4.3892,4.3874,4.3961,4.395,4.396,4.398,4.4133,4.4172,4.409,4.4355,4.4278,4.4298,4.4324,4.4349,4.4368,4.4355,4.4022,0,0,0,0,0,4.3464,4.3565,4.363,4.3773,4.3809,4.3845,4.3903,4.3905,4.3977,4.4007,4.4055,4.4126,4.4224,4.4289,4.4383,4.4559,4.4576,4.4637,4.4656,4.4672,4.4689,4.4782,4.481,4.4519,4.4518,4.4518,0,0,4.3538,4.3594,4.3658,4.3789,4.3843,4.3946,4.387,4.3983,4.4059,4.4024,4.4167,4.4206,4.4286,4.4449,4.4523,4.4486,4.4773,4.4688,4.47,4.4709,4.4798,4.4826,4.485,4.4527,4.4526,4.4524,0,0,4.3725,4.3778,4.3903,4.3958,4.404,4.4063,4.4093,4.4169,4.4193,4.4337,4.4312,4.4403,4.4573,4.463,4.4682,4.4889,4.4864,4.4919,4.502,4.5111,4.5134,4.5155,4.5226,4.5252,4.4936,4.4936,4.4936,0,4.3806,4.3961,4.3969,4.4084,4.4141,4.4113,4.4238,4.4292,4.4401,4.4441,4.4398,4.4609,4.4661,4.4836,4.4886,4.493,4.4963,4.4909,4.513,4.5151,4.517,4.5238,4.5266,4.4942,4.4942,4.4941,4.494,0,4.4055,4.4163,4.4253,4.4358,4.4426,4.4546,4.4572,4.464,4.4636,4.4663,4.4809,4.4871,4.4976,4.5018,4.5016,4.5192,4.5166,4.5127,4.5049,4.5203,4.5268,4.5294,4.4951,4.4949,4.4947,4.4945,0,0,4.4291,4.4397,4.443,4.4476,4.4565,4.4648,4.4766,4.4867,4.4924,4.5001,4.5098,4.5242,4.5205,4.5264,4.5268,4.5348,4.5505,4.5299,4.5301,4.5333,4.5701,4.5729,4.5759,4.549,4.5495,4.5499,4.5694,0,4.4483,4.4689,4.47,4.4887,4.4986,4.496,4.5062,4.5127,4.5156,4.5243,4.5274,4.5375,4.532,4.5355,4.5433,4.547,4.5579,4.5456,4.5581,4.5585,4.5559,4.5793,4.5823,4.6004,4.5719,4.5724,4.5727,0,4.4735,4.4817,4.5014,4.5086,4.5128,4.522,4.5313,4.5397,4.547,4.5485,4.5549,4.5541,4.5661,4.558,4.5745,4.5661,4.5712,4.5738,4.5745,4.5756,4.5664,4.5808,4.6062,4.6088,4.5767,4.5764,4.5761,0,4.4884,4.5045,4.5182,4.5223,4.5312,4.5376,4.5416,4.5483,4.5543,4.5625,4.5663,4.5758,4.581,4.5883,4.5901,4.584,4.6064,4.5985,4.6079,4.6079,4.6126,4.6123,4.639,4.6163,4.6162,4.6162,4.6161,0,4.5097,4.5218,4.525,4.5335,4.5469,4.548,4.5613,4.5648,4.5708,4.5799,4.5783,4.5869,4.5887,4.5977,4.5991,4.6124,4.6148,4.6163,4.6165,4.6163,4.6161,4.6196,4.6183,4.6169,4.6168,4.6166,4.6165,0,4.5285,4.5312,4.546,4.5532,4.5552,4.5648,4.5708,4.5789,4.5815,4.593,4.5958,4.5999,4.6103,4.6128,4.6252,4.6262,4.6418,4.6409,4.6393,4.6392,4.6484,4.6474,4.6781,4.6821,4.657,4.6572,4.6574,0,4.5418,4.551,4.5591,4.565,4.5693,4.5789,4.5849,4.5863,4.5927,4.6016,4.6086,4.6187,4.6269,4.6436,4.6477,4.6572,4.6564,4.6665,4.6578,4.6572,4.6563,4.6556,4.6565,4.6681,4.6684,4.6686,4.6687,0,4.5651,4.5659,4.5746,4.5839,4.5911,4.5985,4.6055,4.6104,4.6128,4.62,4.6306,4.6369,4.6495,4.6596,4.669,4.6731,4.6713,4.6715,4.6741,4.6739,4.6725,4.6732,4.6436,4.6707,4.6705,4.6704,4.6703,4.6702,4.5814,4.5894,4.5962,4.606,4.6114,4.618,4.6258,4.6294,4.6382,4.6485,4.6488,4.6603,4.6671,4.6796,4.6843,4.6932,4.6901,4.694,4.6949,4.6958,4.6965,4.6712,4.695,4.6949,4.6949,4.6948,4.6948,0,4.6043,4.6086,4.6176,4.6274,4.635,4.6327,4.6403,4.6468,4.6569,4.6634,4.6715,4.6835,4.6933,4.6981,4.7077,4.7139,4.7133,4.7164,4.7158,4.7168,4.6988,4.6955,4.7167,4.7167,4.7167,4.7167,4.7167,4.7167,4.6172,4.6305,4.6321,4.6481,4.6522,4.6634,4.6679,4.6739,4.6791,4.6926,4.7006,4.7037,4.7095,4.7195,4.7283,4.7295,4.733,4.7364,4.7372,4.7203,4.7181,4.7159,4.7128,4.7372,4.7373,4.7543,4.7545,4.7546]},{"header":{"parameterUnit":"m.s-1","parameterCategory":1,"la1":30.2991,"la2":30.254,"lo1":-89.0895,"lo2":-89.0444,"dy":0.0017,"dx":0.0017,"nx":28,"ny":28,"refTime":"2025-06-18T09:00:00:Z","depth":0,"parameterNumber":3,"parameterNumberName":"V-component_of_WINDS"},"data":[0,0,0,0,0,0,0,0,0,0,0,0,0,0,0,0,0,0,0,0,0,0,0,0,0,0,0,0,0,0,0,0,0,0,0,0,0,0,0,0,0,0,0,0,0,0,0,0,0,0,0,0,0,0,0,0,0,0,5.2988,5.2989,0,5.3103,5.3105,5.3106,5.3077,5.3075,5.3072,5.307,5.3182,5.3187,5.3192,0,0,0,0,0,0,0,0,0,0,0,0,0,5.2734,5.2738,5.2988,5.2989,5.299,5.3103,5.3105,5.3106,5.3077,5.3074,5.3072,5.3069,5.3181,5.3187,5.3193,0,0,0,0,0,0,0,0,0,0,0,0,0,5.2846,5.274,5.2987,5.299,5.2991,5.3103,5.3105,5.3107,5.3078,5.3074,5.3071,5.3068,5.3179,5.3186,5.3194,5.3308,0,0,5.3217,5.322,0,0,0,0,0,0,0,0,5.284,5.2855,5.2988,5.299,5.2991,5.3072,5.3056,5.3174,5.3079,5.3045,5.307,5.3066,5.3148,5.3158,5.3187,5.3313,5.3318,5.3218,5.3222,5.3225,5.3228,0,0,0,0,0,0,0,5.2832,5.285,5.3033,5.299,5.2992,5.2982,5.2995,5.3078,5.3114,5.3047,5.3046,5.306,5.3148,5.318,5.3189,5.332,5.3217,5.3224,5.3229,5.3232,5.3542,5.3546,0,0,0,0,0,0,5.2824,5.2844,5.3029,5.3037,5.2906,5.299,5.3003,5.305,5.3113,5.3119,5.3063,5.3058,5.3168,5.318,5.3193,5.3329,5.3225,5.3233,5.3237,5.3539,5.3543,5.3547,0,0,0,0,0,0,5.2818,5.2841,5.3025,5.294,5.2963,5.2998,5.305,5.3054,5.3085,5.3124,5.313,5.3089,5.3166,5.3182,5.3279,5.3333,5.3236,5.3243,5.3534,5.354,5.3545,5.3603,0,0,0,0,0,0,5.2811,5.2839,5.2885,5.2941,5.2967,5.3112,5.3053,5.3058,5.3099,5.3094,5.315,5.3156,5.3165,5.3268,5.3287,5.3341,5.3249,5.353,5.3537,5.3543,5.3597,5.361,5.3622,0,0,0,0,0,5.2802,5.2896,5.2887,5.291,5.3026,5.3115,5.313,5.3139,5.3104,5.3148,5.3173,5.3154,5.3324,5.3278,5.3299,5.3357,5.3526,5.3535,5.3543,5.3591,5.3608,5.3621,0,0,0,0,0,0,5.2843,5.2903,5.2894,5.301,5.3058,5.311,5.3167,5.3157,5.3214,5.3207,5.3215,5.3227,5.3326,5.3351,5.3299,5.3469,5.342,5.3432,5.3449,5.3465,5.3477,5.3468,5.3255,0,0,0,0,0,5.2866,5.2936,5.2983,5.308,5.3105,5.3132,5.3171,5.3175,5.3224,5.3243,5.3275,5.3322,5.3385,5.3427,5.3487,5.3601,5.361,5.365,5.3662,5.3672,5.3683,5.3741,5.3759,5.3574,5.3574,5.3574,0,0,5.2913,5.2954,5.2998,5.3089,5.3127,5.3196,5.3149,5.3225,5.3276,5.3254,5.3348,5.3373,5.3424,5.353,5.3577,5.3553,5.3736,5.3683,5.3691,5.3696,5.3752,5.3769,5.3785,5.358,5.3579,5.3578,0,0,5.3033,5.3073,5.3157,5.3196,5.3254,5.3271,5.3291,5.3345,5.3361,5.3455,5.344,5.3499,5.3609,5.3646,5.3679,5.3811,5.3795,5.3831,5.3895,5.3952,5.3966,5.3979,5.4024,5.404,5.3841,5.3841,5.3842,0,5.3084,5.319,5.3201,5.3278,5.3317,5.3303,5.3385,5.3422,5.3496,5.3522,5.3495,5.3631,5.3665,5.3777,5.3809,5.3838,5.3858,5.3824,5.3964,5.3977,5.3989,5.4032,5.4049,5.3845,5.3845,5.3844,5.3844,0,5.3248,5.3321,5.3382,5.3455,5.3501,5.3581,5.3601,5.3646,5.3645,5.3664,5.3758,5.3799,5.3866,5.3893,5.3892,5.4004,5.3987,5.3962,5.3912,5.401,5.405,5.4067,5.3851,5.3849,5.3848,5.3847,0,0,5.3397,5.3475,5.3497,5.3529,5.3591,5.3647,5.3724,5.3792,5.3829,5.388,5.3943,5.4036,5.4012,5.405,5.4053,5.4103,5.4202,5.4071,5.4073,5.4092,5.4325,5.4342,5.4361,5.4192,5.4196,5.4198,5.4319,0,5.3522,5.3661,5.3672,5.3796,5.3862,5.3848,5.3915,5.3959,5.3978,5.4035,5.4055,5.412,5.4086,5.4108,5.4157,5.418,5.4249,5.4171,5.4248,5.4251,5.4234,5.4382,5.4401,5.4514,5.4335,5.4338,5.434,0,5.3686,5.3743,5.3874,5.3925,5.3953,5.4013,5.4075,5.4131,5.4178,5.4189,5.423,5.4226,5.4302,5.425,5.4354,5.4301,5.4332,5.4348,5.4353,5.4359,5.43,5.439,5.455,5.4566,5.4365,5.4363,5.4362,0,5.3779,5.3888,5.398,5.4008,5.4071,5.4113,5.414,5.4185,5.4224,5.4277,5.4302,5.4363,5.4395,5.4441,5.4451,5.4413,5.4554,5.4504,5.4562,5.4561,5.4591,5.4588,5.4756,5.4615,5.4614,5.4614,5.4614,0,5.3916,5.3996,5.4023,5.4079,5.4167,5.4178,5.4264,5.4288,5.4328,5.4386,5.4378,5.4432,5.4444,5.45,5.4509,5.4591,5.4607,5.4615,5.4616,5.4615,5.4613,5.4634,5.4626,5.4619,5.4618,5.4617,5.4616,0,5.4034,5.4056,5.4155,5.4206,5.422,5.4282,5.4324,5.4377,5.4395,5.4469,5.4486,5.4514,5.4579,5.4595,5.4672,5.4678,5.4775,5.4769,5.4759,5.4758,5.4815,5.4808,5.5,5.5025,5.4869,5.4871,5.4872,0,5.4119,5.418,5.4238,5.4277,5.4307,5.4371,5.4411,5.4423,5.4464,5.4522,5.4567,5.4632,5.4684,5.4788,5.4813,5.4872,5.4866,5.4929,5.4874,5.4871,5.4864,5.4859,5.4864,5.4939,5.4941,5.4942,5.4943,0,5.4266,5.4274,5.4333,5.4396,5.4444,5.4494,5.4541,5.4573,5.4591,5.4638,5.4705,5.4746,5.4825,5.4888,5.4947,5.4971,5.4959,5.496,5.4976,5.4975,5.4966,5.4969,5.4785,5.4956,5.4954,5.4953,5.4953,5.4952,5.4369,5.4422,5.447,5.4536,5.4573,5.4617,5.4668,5.4693,5.475,5.4817,5.4819,5.4892,5.4935,5.5013,5.5042,5.5096,5.5077,5.5101,5.5106,5.5112,5.5115,5.4959,5.5107,5.5107,5.5107,5.5106,5.5106,0,5.4514,5.4544,5.4604,5.4671,5.4722,5.4709,5.4759,5.4802,5.4867,5.491,5.4961,5.5037,5.5098,5.5128,5.5187,5.5225,5.5221,5.524,5.5236,5.5242,5.5131,5.511,5.5243,5.5243,5.5243,5.5243,5.5243,5.5243,5.4595,5.4683,5.4696,5.4801,5.483,5.4903,5.4933,5.4972,5.5006,5.5092,5.5143,5.5163,5.5199,5.5261,5.5315,5.5322,5.5343,5.5365,5.5368,5.5264,5.525,5.5237,5.5217,5.537,5.537,5.5474,5.5475,5.5476]}]]